Mid-South Regional Weather Roundup Report



Select Weather Forecast Office:  



NWS Memphis Weather Forecast Office

NWS - Mid-South Regional Weather Roundup Report
County Warning Area [CWA]: MEG
Regional NWS Weather Office: Memphis, TN

000
ASUS44 KMEG 200400
RWRMEG
MEMPHIS CWA HOURLY WEATHER ROUNDUP
NATIONAL WEATHER SERVICE MEMPHIS TN
1100 PM CDT SAT AUG 19 2017

...WEST TENNESSEE...

CITY           SKY/WX    TMP DP  RH WIND       PRES   REMARKS
MEMPHIS INTL   CLOUDY    83  75  77 W3        29.99R HX  90
NWS MEMPHIS      N/A     80 N/A N/A MISG        N/A
JACKSON        CLEAR     72  72 100 CALM      29.99S
DYERSBURG      CLEAR     75  73  93 CALM      29.99S


...EASTERN ARKANSAS...

CITY           SKY/WX    TMP DP  RH WIND       PRES   REMARKS
JONESBORO      PTCLDY    78  78 100 CALM      29.98R
WEST MEMPHIS   CLOUDY    80  79  96 CALM      29.97R
BATESVILLE     MOCLDY    73  70  88 CALM      30.01R
NEWPORT        MOCLDY    78  74  87 CALM      29.98S
WALNUT RIDGE   CLEAR     77  70  78 CALM      29.98S
BLYTHEVILLE    PTCLDY    77  74  90 SW3       29.98S
SEARCY         CLEAR     77  73  87 MISG        N/A
PINE BLUFF       N/A     81  78  91 CALM      29.97
MONTICELLO     CLEAR     83  74  74 S7        29.98S


...NORTH MISSISSIPPI...

CITY           SKY/WX    TMP DP  RH WIND       PRES   REMARKS
TUPELO         MOCLDY    82  73  74 CALM      29.99R
TUNICA           N/A     79  77  94 CALM      29.99R
CLARKSDALE       N/A     79  79 100 CALM      29.98R
GREENWOOD      CLEAR     79  77  94 S3        29.98S
COLUMBUS       CLEAR     78  78 100 CALM      29.98R
STARKVILLE     CLEAR     77  77 100 CALM      30.00S
GOLDEN TRIANGL CLEAR     81  72  74 CALM        N/A


...SOUTHEAST MISSOURI...

CITY           SKY/WX    TMP DP  RH WIND       PRES   REMARKS
MALDEN         CLOUDY    79  73  83 S5        29.98S
WEST PLAINS    CLOUDY    76  70  82 S5        30.03R
POPLAR BLUFF   CLOUDY    77  75  93 S5        29.97R
CAPE GIRARDEAU CLEAR     76  71  85 CALM      29.97R


...NORTHWEST ALABAMA...

CITY           SKY/WX    TMP DP  RH WIND       PRES   REMARKS
MUSCLE SHOALS  MOCLDY    77  72  84 CALM      30.01S


...MIDDLE TENNESSEE...

CITY           SKY/WX    TMP DP  RH WIND       PRES   REMARKS
NASHVILLE      CLEAR     79  70  74 CALM      30.02R
CLARKSVILLE    CLEAR     72  69  90 CALM      30.00S


...WESTERN KENTUCKY...

CITY           SKY/WX    TMP DP  RH WIND       PRES   REMARKS
PADUCAH        CLEAR     75  69  81 CALM      29.97R
FORT CAMPBELL  CLEAR     77  71  82 CALM      30.00R


...CENTRAL ARKANSAS...

CITY           SKY/WX    TMP DP  RH WIND       PRES   REMARKS
LITTLE ROCK    PTCLDY    81  79  94 CALM      29.98R HX  90


SKY/WX REPORTED AS FAIR MEANS FEW OR NO CLOUDS BELOW
12 THOUSAND FEET.

Mid-South Regional Weather Roundup Report from: NOAA-NWS